WX4SNO Weather Reports


Display with metric or nautical units.
time (UTC)temp
F
wind
direction
speed
MPH
gust
MPH
rain 1hr
in
rain 24hr
in
rain mn
in
humidity
%
barometer
mb
20260508092503 41 340 0.0 0.0 0.00 0.00 0.00 74 1018.3
20260508092004 41 340 0.0 0.0 0.00 0.00 0.00 74 1018.2
20260508091503 41 355 0.0 0.0 0.00 0.00 0.00 75 1018.3
20260508091003 41 306 0.0 0.0 0.00 0.00 0.00 75 1018.3
20260508090502 41 304 0.0 0.0 0.00 0.00 0.00 75 1018.4
20260508090003 41 304 0.0 0.0 0.00 0.00 0.00 75 1018.2
20260508085524 41 304 0.0 0.0 0.00 0.00 0.00 75 1018.2
20260508085045 41 300 0.0 0.0 0.00 0.00 0.00 75 1018.2
20260508084508 41 298 0.0 0.0 0.00 0.00 0.00 76 1018.3
20260508084006 41 272 0.0 0.0 0.00 0.00 0.00 76 1018.3
20260508083503 41 272 0.0 0.0 0.00 0.00 0.00 77 1018.3
20260508083003 41 272 0.0 0.0 0.00 0.00 0.00 76 1018.4
20260508082503 41 239 0.0 0.0 0.00 0.00 0.00 77 1018.4
20260508082024 41 238 0.0 0.0 0.00 0.00 0.00 77 1018.4
20260508081503 41 237 0.0 0.0 0.00 0.00 0.00 77 1018.3
20260508081003 41 237 0.0 0.0 0.00 0.00 0.00 77 1018.3
20260508080502 41 237 0.0 0.0 0.00 0.00 0.00 77 1018.3
20260508080003 41 237 0.0 0.0 0.00 0.00 0.00 76 1018.3
20260508075524 41 237 0.0 0.0 0.00 0.00 0.00 77 1018.2
20260508075003 41 237 0.0 0.0 0.00 0.00 0.00 77 1018.2
20260508074524 41 237 0.0 0.0 0.00 0.00 0.00 77 1018.2
20260508074002 41 237 0.0 0.0 0.00 0.00 0.00 76 1018.2
20260508073504 41 237 0.0 0.0 0.00 0.00 0.00 77 1018.2
20260508073024 41 237 0.0 0.0 0.00 0.00 0.00 77 1018.2
20260508072503 41 237 0.0 0.0 0.00 0.00 0.00 77 1018.1
20260508072003 41 237 0.0 0.0 0.00 0.01 0.00 78 1017.9
20260508071002 41 237 0.0 0.0 0.00 0.01 0.00 79 1017.8
20260508070503 42 237 0.0 0.0 0.00 0.01 0.00 79 1017.9
20260508070025 42 237 0.0 0.0 0.00 0.01 0.00 80 1017.8
20260508065502 42 237 0.0 0.0 0.00 0.01 0.00 80 1017.9
20260508065003 42 237 0.0 0.0 0.00 0.01 0.00 79 1017.8
20260508064503 42 237 0.0 0.0 0.00 0.01 0.00 79 1017.7
20260508064024 42 237 0.0 0.0 0.00 0.01 0.00 80 1017.6
20260508063502 42 237 0.0 0.0 0.00 0.01 0.00 79 1017.6
20260508063046 42 234 0.0 0.0 0.00 0.01 0.00 79 1017.6
20260508062503 43 234 0.0 0.0 0.00 0.01 0.00 80 1017.7
20260508062003 43 234 0.0 0.0 0.00 0.01 0.00 79 1017.7
20260508061502 43 5 0.0 0.0 0.00 0.01 0.00 79 1017.7
20260508061003 43 5 0.0 0.0 0.00 0.01 0.00 79 1017.7
20260508060503 43 5 0.0 0.0 0.00 0.01 0.00 79 1017.7
20260508060004 43 5 0.0 0.0 0.00 0.01 0.00 79 1017.6
20260508055504 43 5 0.0 0.0 0.00 0.01 0.00 79 1017.6
20260508055003 43 230 0.0 0.0 0.00 0.01 0.00 79 1017.7
20260508054525 43 230 0.0 0.0 0.00 0.01 0.00 79 1017.6
20260508054003 43 286 0.0 0.0 0.00 0.01 0.00 80 1017.6
20260508053502 43 67 0.0 0.0 0.00 0.01 0.00 79 1017.6
20260508053003 44 66 0.0 0.0 0.00 0.01 0.00 79 1017.5
20260508052503 44 65 0.0 0.0 0.00 0.01 0.00 79 1017.5
20260508052003 44 65 0.0 0.0 0.00 0.01 0.00 80 1017.3
20260508051503 44 124 0.0 0.0 0.00 0.01 0.00 80 1017.3
20260508051024 44 128 0.0 0.0 0.00 0.01 0.00 80 1017.3
20260508050503 44 128 0.0 0.0 0.00 0.01 0.00 80 1017.2
20260508050003 44 128 0.0 0.0 0.00 0.01 0.00 80 1017.1
20260508045502 44 128 0.0 0.0 0.00 0.01 0.00 80 1017.1
20260508045003 44 128 0.0 0.0 0.00 0.01 0.00 80 1017.0
20260508044503 44 128 0.0 0.0 0.00 0.01 0.00 80 1016.9
20260508044002 44 128 0.0 0.0 0.00 0.01 0.00 80 1016.9
20260508043524 44 156 0.0 0.0 0.00 0.01 0.00 80 1016.7
20260508043024 44 160 0.0 0.0 0.00 0.01 0.00 80 1016.7
20260508042524 44 159 0.0 0.0 0.00 0.01 0.00 80 1016.7
20260508042024 44 160 0.0 0.0 0.00 0.01 0.00 80 1016.7
20260508041504 44 50 0.0 0.0 0.00 0.01 0.00 80 1016.7
20260508041024 45 50 0.0 0.0 0.00 0.01 0.00 80 1016.7
20260508040524 45 49 0.0 0.0 0.00 0.01 0.00 80 1016.6
20260508040024 45 49 0.0 0.0 0.00 0.01 0.00 80 1016.5
20260508035503 45 29 0.0 0.0 0.00 0.24 0.00 80 1016.5
20260508035003 45 51 0.0 0.0 0.00 0.24 0.00 80 1016.4
20260508034504 45 97 0.0 0.0 0.00 0.26 0.02 80 1016.3
20260508034004 45 291 0.0 0.0 0.00 0.26 0.02 80 1016.1
20260508033503 45 277 0.0 0.0 0.00 0.26 0.02 80 1016.1
20260508033003 45 277 0.0 0.0 0.00 0.26 0.02 80 1016.2
20260508032503 45 317 0.0 0.0 0.00 0.26 0.02 80 1016.1
20260508032004 45 314 0.0 0.0 0.00 0.26 0.02 80 1016.2
20260508031504 45 74 0.0 0.0 0.00 0.26 0.02 80 1016.2
20260508031003 45 74 0.0 0.0 0.00 0.26 0.02 80 1016.2
20260508030003 45 139 0.0 1.0 0.00 0.26 0.02 80 1016.0
20260508025503 45 140 0.0 0.0 0.00 0.26 0.02 80 1016.0
20260508025003 45 140 0.0 0.0 0.00 0.26 0.02 80 1016.0
20260508024503 45 193 0.0 1.0 0.00 0.26 0.02 80 1015.9
20260508024003 46 84 0.0 1.0 0.00 0.26 0.02 80 1015.8
20260508023525 46 84 0.0 0.0 0.00 0.26 0.02 80 1015.7
20260508023003 46 17 0.0 0.0 0.00 0.26 0.02 80 1015.7
20260508022503 46 90 0.0 0.0 0.00 0.26 0.02 80 1015.6
20260508022024 46 76 0.0 0.0 0.00 0.26 0.02 80 1015.6
20260508021503 46 76 0.0 0.0 0.00 0.26 0.02 80 1015.5
20260508021003 46 75 0.0 0.0 0.00 0.26 0.02 80 1015.4
20260508020502 46 74 0.0 0.0 0.00 0.02 0.02 79 1015.4
20260508020003 46 355 0.0 0.0 0.00 0.07 0.02 79 1015.2
20260508015503 46 250 0.0 0.0 0.00 0.11 0.02 79 1015.1
20260508015023 46 255 0.0 1.0 0.00 0.14 0.02 79 1015.1
20260508014503 47 232 0.0 1.0 0.00 0.15 0.02 79 1014.9
20260508014003 47 331 0.0 0.0 0.00 0.15 0.02 79 1014.8
20260508013502 47 342 0.0 3.0 0.00 0.15 0.02 79 1014.7
20260508013003 47 333 0.0 3.0 0.00 0.15 0.02 79 1014.7
20260508012503 47 14 0.0 0.0 0.00 0.15 0.02 79 1014.6
20260508012003 47 11 0.0 0.0 0.00 0.15 0.02 79 1014.4
20260508011524 47 12 0.0 0.0 0.00 0.15 0.02 79 1014.3
20260508011003 47 10 0.0 0.0 0.00 0.15 0.02 79 1014.2
20260508010503 47 10 0.0 0.0 0.00 0.15 0.02 79 1014.2
20260508010002 47 162 0.0 0.0 0.00 0.15 0.02 79 1014.1
20260508005503 47 113 0.0 1.0 0.00 0.15 0.02 79 1014.1
20260508005024 47 108 0.0 1.0 0.00 0.15 0.02 78 1014.0
20260508004503 47 128 0.0 0.0 0.00 0.15 0.02 79 1013.9
20260508004004 47 126 0.0 0.0 0.00 0.15 0.02 79 1014.0
20260508003524 47 126 0.0 0.0 0.00 0.15 0.02 79 1014.1
20260508003003 47 69 0.0 1.0 0.00 0.15 0.02 79 1014.0
20260508002503 47 122 0.0 1.0 0.00 0.15 0.02 78 1013.9
20260508002002 48 169 0.0 0.0 0.00 0.15 0.02 79 1014.0
20260508001524 48 171 0.0 0.0 0.00 0.15 0.02 79 1014.1
20260508001003 48 172 0.0 0.0 0.00 0.15 0.02 79 1014.0
20260508000524 48 53 0.0 0.0 0.00 0.15 0.02 79 1014.1
20260508000003 49 38 0.0 0.0 0.00 0.15 0.02 78 1014.1
20260507235503 49 36 0.0 0.0 0.00 0.15 0.02 78 1014.0
20260507235003 49 13 0.0 0.0 0.00 0.15 0.02 77 1014.0
20260507234503 50 12 0.0 0.0 0.00 0.15 0.02 77 1014.0
20260507234003 50 15 0.0 0.0 0.00 0.15 0.02 76 1013.9
20260507233503 50 85 0.0 0.0 0.00 0.15 0.02 76 1013.9
20260507233003 50 84 0.0 0.0 0.00 0.15 0.02 76 1013.8
20260507232502 51 84 0.0 0.0 0.00 0.15 0.02 75 1013.6
20260507232003 51 128 0.0 0.0 0.00 0.15 0.02 74 1013.6
20260507231503 52 93 0.0 0.0 0.00 0.15 0.02 73 1013.5
20260507231003 52 106 0.0 1.0 0.00 0.15 0.02 72 1013.4
20260507230503 52 32 0.0 1.0 0.00 0.15 0.02 72 1013.3
20260507230003 52 5 0.0 0.0 0.00 0.15 0.02 71 1013.2
20260507225503 53 324 0.0 0.0 0.00 0.15 0.02 73 1013.2
20260507225003 53 40 0.0 0.0 0.00 0.15 0.02 73 1013.1
20260507224504 53 67 0.0 0.0 0.00 0.15 0.02 74 1013.1
20260507224024 53 56 0.0 0.0 0.00 0.15 0.02 73 1013.2
20260507223503 53 355 0.0 0.0 0.00 0.15 0.02 72 1013.1
20260507223003 53 292 0.0 1.0 0.00 0.15 0.02 70 1013.0
20260507222503 53 355 0.0 3.0 0.00 0.15 0.02 71 1013.0
20260507222004 53 9 0.0 3.0 0.00 0.15 0.02 70 1012.9
20260507221524 53 305 0.0 1.0 0.00 0.15 0.02 70 1012.8
20260507221003 53 93 0.0 1.0 0.00 0.15 0.02 69 1012.8
20260507220503 53 14 0.0 1.0 0.00 0.15 0.02 69 1012.7
20260507220024 54 336 0.0 0.0 0.00 0.15 0.02 70 1012.6
20260507215524 54 5 0.0 0.0 0.00 0.15 0.02 71 1012.6
20260507215002 54 299 0.0 1.0 0.00 0.15 0.02 72 1012.4
20260507214503 54 28 0.0 1.0 0.00 0.15 0.02 70 1012.5
20260507214003 55 292 0.0 0.0 0.00 0.15 0.02 70 1012.5
20260507213505 55 186 0.0 0.0 0.00 0.15 0.02 71 1012.3
20260507213024 55 16 0.0 0.0 0.00 0.15 0.02 71 1012.3
20260507212502 54 330 0.0 0.0 0.00 0.15 0.02 74 1012.3
20260507212003 53 39 0.0 0.0 0.00 0.15 0.02 75 1012.3
20260507211503 53 123 0.0 0.0 0.00 0.15 0.02 76 1012.2
20260507211024 53 173 0.0 0.0 0.00 0.15 0.02 74 1012.3
20260507210503 53 298 0.0 0.0 0.00 0.15 0.02 74 1012.1
20260507210003 54 28 0.0 0.0 0.00 0.15 0.02 75 1012.2
20260507205503 54 342 0.0 0.0 0.00 0.15 0.02 74 1012.0
20260507205045 55 66 0.0 0.0 0.00 0.15 0.02 75 1011.9
20260507204502 55 42 0.0 0.0 0.00 0.15 0.02 74 1011.9
20260507204024 55 48 0.0 1.0 0.00 0.15 0.02 75 1011.6
20260507203503 55 48 0.0 1.0 0.00 0.15 0.02 75 1011.7
20260507203002 56 355 0.0 0.0 0.00 0.15 0.02 74 1011.7
20260507202503 56 11 0.0 0.0 0.00 0.15 0.02 75 1011.8
20260507201524 56 15 0.0 0.0 0.00 0.15 0.02 74 1011.6
20260507201003 56 347 0.0 0.0 0.00 0.15 0.02 74 1011.6
20260507200503 56 11 0.0 0.0 0.00 0.15 0.02 75 1011.6
20260507200003 56 315 0.0 0.0 0.00 0.15 0.02 74 1011.7
20260507195524 56 349 0.0 0.0 0.00 0.15 0.02 75 1011.7
20260507195003 56 347 0.0 0.0 0.00 0.15 0.02 75 1011.8
20260507194503 56 13 0.0 1.0 0.00 0.15 0.02 75 1011.9
20260507194024 56 5 0.0 1.0 0.00 0.15 0.02 75 1012.1
20260507193503 55 180 0.0 1.0 0.00 0.15 0.02 77 1012.1
20260507193003 55 325 0.0 1.0 0.00 0.15 0.02 77 1012.2
20260507192524 54 11 0.0 0.0 0.00 0.15 0.02 78 1012.2
20260507192003 54 360 0.0 1.0 0.00 0.15 0.02 78 1012.3
20260507191503 54 13 0.0 1.0 0.00 0.15 0.02 79 1012.5
20260507191045 54 40 0.0 0.0 0.00 0.15 0.02 78 1012.4
20260507190504 53 36 0.0 0.0 0.00 0.15 0.02 78 1012.5
20260507190004 53 36 0.0 0.0 0.01 0.15 0.02 79 1012.6
20260507185503 53 41 0.0 0.0 0.01 0.15 0.02 79 1012.8
20260507185023 53 40 0.0 0.0 0.01 0.15 0.02 79 1012.8
20260507184503 52 41 0.0 0.0 0.01 0.15 0.02 79 1012.8
20260507184003 52 317 0.0 0.0 0.01 0.15 0.02 78 1012.8
20260507183502 53 5 0.0 0.0 0.01 0.15 0.02 77 1012.8
20260507183024 53 10 0.0 0.0 0.00 0.14 0.01 77 1012.9
20260507182503 53 51 0.0 0.0 0.00 0.14 0.01 77 1012.7
20260507182003 53 36 0.0 0.0 0.00 0.14 0.01 77 1012.8
20260507181502 53 5 0.0 0.0 0.00 0.14 0.01 78 1012.7
20260507181003 53 36 0.0 0.0 0.00 0.14 0.01 78 1012.6
20260507180503 53 177 0.0 0.0 0.00 0.14 0.01 77 1012.7
20260507180002 52 21 0.0 0.0 0.00 0.14 0.01 79 1012.7
20260507175524 52 31 0.0 0.0 0.00 0.14 0.01 78 1012.7
20260507175024 52 5 0.0 0.0 0.00 0.14 0.01 79 1012.7
20260507174503 51 49 0.0 0.0 0.00 0.14 0.01 79 1012.7
20260507174003 51 40 0.0 0.0 0.00 0.14 0.01 79 1012.7
20260507173503 51 15 0.0 1.0 0.00 0.14 0.01 79 1012.8
20260507173003 51 16 0.0 1.0 0.00 0.14 0.01 79 1012.9
20260507172503 51 355 0.0 0.0 0.00 0.14 0.01 79 1013.0
20260507172002 51 355 0.0 0.0 0.00 0.14 0.01 79 1012.8
20260507171503 51 19 0.0 0.0 0.00 0.14 0.01 79 1012.9
20260507171003 50 19 0.0 0.0 0.00 0.14 0.01 79 1013.0
20260507170523 50 40 0.0 0.0 0.00 0.14 0.01 79 1012.9
20260507170004 50 5 0.0 0.0 0.00 0.14 0.01 79 1012.9
20260507165502 50 14 0.0 1.0 0.00 0.14 0.01 79 1012.9
20260507165004 50 35 0.0 1.0 0.00 0.15 0.01 79 1012.9
20260507164503 50 5 0.0 0.0 0.00 0.15 0.01 79 1013.0
20260507164045 50 355 0.0 0.0 0.00 0.15 0.01 79 1012.9
20260507163504 51 31 0.0 0.0 0.00 0.15 0.01 79 1013.0
20260507163003 50 31 0.0 0.0 0.00 0.15 0.01 79 1013.0
20260507162503 51 19 0.0 0.0 0.00 0.15 0.01 79 1013.0
20260507162003 51 29 0.0 0.0 0.00 0.15 0.01 78 1012.9
20260507161503 50 37 0.0 0.0 0.00 0.15 0.01 79 1013.0
20260507161003 50 37 0.0 0.0 0.00 0.15 0.01 78 1013.0
20260507160504 50 43 0.0 0.0 0.00 0.15 0.01 78 1013.1
20260507160004 50 355 0.0 0.0 0.00 0.15 0.01 78 1013.1
20260507155503 50 12 0.0 0.0 0.00 0.15 0.01 78 1013.0
20260507155003 50 19 0.0 0.0 0.00 0.15 0.01 77 1013.1
20260507154503 50 5 0.0 0.0 0.00 0.15 0.01 77 1013.1
20260507154003 50 5 0.0 0.0 0.00 0.15 0.01 76 1013.2
20260507153502 49 9 0.0 0.0 0.00 0.15 0.01 77 1013.2
20260507153024 49 12 0.0 0.0 0.00 0.15 0.01 75 1013.1
20260507152503 49 5 0.0 0.0 0.00 0.15 0.01 74 1013.2
20260507152003 49 5 0.0 0.0 0.00 0.15 0.01 73 1013.3
20260507151523 49 339 0.0 0.0 0.00 0.15 0.01 72 1013.5
20260507151003 49 339 0.0 0.0 0.00 0.15 0.01 71 1013.5
20260507150503 49 287 0.0 0.0 0.00 0.15 0.01 68 1013.4
20260507150003 49 346 0.0 0.0 0.00 0.15 0.01 66 1013.4
20260507145502 49 346 0.0 0.0 0.00 0.15 0.01 63 1013.4
20260507145004 49 33 0.0 0.0 0.00 0.15 0.01 59 1013.3
20260507144503 49 26 0.0 0.0 0.00 0.15 0.01 57 1013.3
20260507144002 49 23 0.0 0.0 0.00 0.15 0.01 56 1013.2
20260507143503 48 317 0.0 0.0 0.00 0.15 0.01 53 1013.2
20260507143003 48 5 0.0 0.0 0.00 0.15 0.01 53 1013.4
20260507142502 48 5 0.0 0.0 0.00 0.15 0.01 49 1013.2
20260507142024 48 5 0.0 0.0 0.00 0.15 0.01 47 1013.2
20260507141524 48 5 0.0 0.0 0.00 0.15 0.01 47 1013.2
20260507141003 48 5 0.0 0.0 0.00 0.15 0.01 46 1013.3
20260507140503 48 212 0.0 0.0 0.00 0.15 0.01 43 1013.2
20260507140003 48 5 0.0 0.0 0.00 0.15 0.01 41 1013.2
20260507135524 49 338 0.0 0.0 0.00 0.15 0.01 38 1013.3
20260507135003 49 328 0.0 0.0 0.00 0.16 0.01 35 1013.3
20260507134502 49 5 0.0 0.0 0.00 0.16 0.01 33 1013.2
20260507134004 49 15 0.0 0.0 0.00 0.16 0.01 34 1013.0
20260507133503 49 46 0.0 0.0 0.00 0.17 0.01 34 1012.9
20260507133004 49 21 0.0 0.0 0.00 0.18 0.01 33 1013.1
20260507132503 49 20 0.0 0.0 0.00 0.19 0.01 32 1013.6
20260507132004 49 19 0.0 0.0 0.00 0.20 0.01 32 1013.6
20260507131503 49 19 0.0 0.0 0.00 0.20 0.01 32 1013.6
20260507131003 49 19 0.0 0.0 0.00 0.22 0.01 31 1013.5
20260507130502 49 19 0.0 0.0 0.00 0.23 0.01 31 1013.3
20260507130003 49 19 0.0 0.0 0.00 0.23 0.01 31 1013.5
20260507125503 49 28 0.0 0.0 0.00 0.23 0.01 30 1013.4
20260507125003 49 28 0.0 0.0 0.00 0.23 0.01 31 1013.7
20260507124525 49 27 0.0 0.0 0.00 0.23 0.01 31 1014.0
20260507124003 49 27 0.0 0.0 0.00 0.24 0.01 31 1013.7
20260507123504 49 27 0.0 0.0 0.00 0.24 0.01 31 1013.5
20260507123003 49 27 0.0 0.0 0.00 0.25 0.01 32 1013.6
20260507122523 49 28 0.0 0.0 0.00 0.25 0.01 32 1013.6
20260507122004 49 28 0.0 0.0 0.00 0.25 0.01 32 1013.5
20260507121504 49 28 0.0 0.0 0.00 0.25 0.01 33 1013.5
20260507121009 49 22 0.0 0.0 0.00 0.25 0.01 33 1013.6
20260507120503 49 22 0.0 0.0 0.00 0.25 0.01 33 1013.4
20260507120003 49 51 0.0 0.0 0.00 0.25 0.01 32 1013.4
20260507115524 49 52 0.0 0.0 0.00 0.25 0.01 32 1013.3
20260507115003 49 67 0.0 0.0 0.00 0.25 0.01 32 1013.0
20260507114503 49 67 0.0 0.0 0.00 0.25 0.01 33 1013.2
20260507114003 49 67 0.0 0.0 0.00 0.25 0.01 33 1013.1
20260507113508 49 67 0.0 0.0 0.00 0.25 0.01 34 1012.9
20260507113003 49 67 0.0 0.0 0.00 0.25 0.01 34 1013.1
20260507112503 50 67 0.0 0.0 0.00 0.25 0.01 34 1013.1
20260507112003 50 69 0.0 0.0 0.00 0.25 0.01 34 1013.3
20260507111504 50 69 0.0 0.0 0.00 0.25 0.01 34 1013.2
20260507111002 50 69 0.0 0.0 0.00 0.25 0.01 34 1013.1
20260507110503 50 69 0.0 0.0 0.00 0.25 0.01 34 1012.8
20260507110006 50 69 0.0 0.0 0.00 0.25 0.01 32 1012.8
20260507105503 50 69 0.0 0.0 0.00 0.25 0.01 32 1012.5
20260507105004 51 80 0.0 0.0 0.00 0.25 0.01 32 1012.8
20260507104526 51 80 0.0 0.0 0.00 0.25 0.01 32 1012.4
20260507104003 51 80 0.0 0.0 0.00 0.25 0.01 32 1012.3
20260507103503 51 80 0.0 0.0 0.00 0.25 0.01 33 1012.3
20260507103003 51 80 0.0 0.0 0.00 0.25 0.01 34 1012.2
20260507102503 51 80 0.0 0.0 0.00 0.25 0.01 35 1012.4
20260507102003 51 80 0.0 0.0 0.00 0.25 0.01 35 1012.3
20260507101503 51 80 0.0 0.0 0.00 0.25 0.01 37 1012.7
20260507101003 51 80 0.0 0.0 0.00 0.25 0.01 36 1012.5
20260507100503 51 126 0.0 0.0 0.00 0.25 0.01 36 1012.5
20260507100003 51 135 0.0 0.0 0.00 0.25 0.01 36 1012.6
20260507095503 51 11 0.0 0.0 0.00 0.25 0.01 37 1012.7
20260507095003 51 11 0.0 0.0 0.00 0.25 0.01 38 1012.5
20260507094503 51 360 0.0 0.0 0.00 0.25 0.01 38 1012.4
20260507094002 52 324 0.0 0.0 0.00 0.25 0.01 38 1012.5
20260507093503 52 346 0.0 0.0 0.00 0.25 0.01 37 1012.4
20260507093003 52 25 0.0 0.0 0.00 0.25 0.01 36 1012.8